Cosmos 1437 - Orbit

View from above orbital plane
View from above orbital plane
View from above satellite
View from above satellite

Ground track
Ground track

The orbit data is extracted from the following two-line orbital elements,

1 13770U 83003A   13138.06949068  .00008238  00000-0  33484-3 0  2821
2 13770 081.1671 143.1581 0013937 029.9944 028.4690 15.24335726657271
Epoch (UTC): 18 May 2013 01:40:03
Eccentricity: 0.0013937
inclination: 81.1671°
perigee height: 483 km
apogee height: 502 km
right ascension of ascending node: 143.1581°
argument of perigee: 29.9944°
revolutions per day: 15.24335726
mean anomaly at epoch: 28.4690°
orbit number at epoch: 65727

The dashed part of the orbit path shows where the satellite is in the earth's shadow,  

Developed and maintained by Chris Peat, Heavens-Above GmbH. Please read the updated FAQ before sending e-mail. Imprint. DLR